Regional Weather Roundup
Issued by NWS

Home | Current Version | Previous Version | Graphics & Text | Print | Product List | Glossary On
Versions: 1 2 3 4 5 6 7 8 9 10 11 12 13 14 15 16 17 18 19 20 21 22 23 24 25 26 27 28 29 30 31 32 33 34 35 36 37 38 39 40 41 42 43 44 45 46 47 48 49 50
000
ASUS45 KBOI 220510
RWRID
WEATHER ROUNDUP FOR IDAHO
NATIONAL WEATHER SERVICE BOISE ID
1100 PM MDT MON JUL 21 2014

NOTE: "FAIR" INDICATES FEW OR NO CLOUDS BELOW 12000 FEET
WITH NO SIGNIFICANT WEATHER AND/OR OBSTRUCTIONS TO VISIBILITY

IDZ012-014-220600-
SOUTHWEST IDAHO


CITY           SKY/WX    TMP DP  RH WIND       PRES   REMARKS
BOISE          CLOUDY    76  56  49 SE9       30.05R
CALDWELL       CLOUDY    73  48  40 CALM      30.06R
MOUNTAIN HOME  CLOUDY    69  59  69 SE5       30.07R
$$

IDZ016-017-220600-
SOUTHCENTRAL IDAHO


CITY           SKY/WX    TMP DP  RH WIND       PRES   REMARKS
BURLEY         TSTM      67  58  72 S13       30.17R
JEROME         PTCLDY    66  55  67 SE6       30.16R
TWIN FALLS     MOCLDY    65  56  72 S6        30.18R
$$

IDZ019>023-220600-
SOUTHEAST IDAHO


CITY           SKY/WX    TMP DP  RH WIND       PRES   REMARKS
IDAHO FALLS    MOCLDY    72  48  42 S16       30.18R
POCATELLO      CLEAR     63  56  78 W9        30.15F
REXBURG        MOCLDY    67  48  50 SW10      30.18R
$$

IDZ006-010-011-018-031-032-220600-
CENTRAL IDAHO MOUNTAINS


CITY           SKY/WX    TMP DP  RH WIND       PRES   REMARKS
MCCALL         MOCLDY    62  49  62 CALM      30.16R
HAILEY         MOCLDY    61  52  72 CALM      30.18
STANLEY          N/A     55  49  80 S5        30.27R
SALMON         CLOUDY    75  45  33 S8        30.04R
CHALLIS        CLOUDY    66  46  48 NW3       30.14R
$$

IDZ002-004-006-007-026-220600-
NORTHERN IDAHO


CITY           SKY/WX    TMP DP  RH WIND       PRES   REMARKS
LEWISTON       MOCLDY    76  39  26 SE5       29.96R
LOWELL           N/A     67  52  58 CALM      30.01R
COEUR D`ALENE  CLOUDY    64  50  59 MISG      30.01F
MULLAN PASS    MOCLDY    55  31  39 S6        30.20R
$$



USA.gov is the U.S. government's official web portal to all federal, state and local government web resources and services.